Weather History for Minden, LA

Change the Weather History Date:

Thursday, November 1, 2012

  Actual Average (KBAD) Record (KBAD)
Temperature  
Mean Temperature 63 °F -  
Max Temperature 80 °F 68 °F 84 °F (2000)
Min Temperature 47 °F 49 °F 44 °F (2011)
Degree Days  
Heating Degree Days 2    
Growing Degree Days 13 (Base 50)    
Moisture  
Dew Point 53 °F    
Average Humidity 76    
Maximum Humidity 93    
Minimum Humidity 40    
Precipitation  
Precipitation 0.00 in - - ()
Sea Level Pressure  
Sea Level Pressure 30.01 in    
Wind  
Wind Speed 1 mph ()    
Max Wind Speed 6 mph    
Max Gust Speed -    
Visibility 9.0 miles    
Events      
Averages and records for this station are not official NWS values.
T = Trace of Precipitation, MM = Missing Value Source: Averaged Metar Reports

Daily Weather History Graph

Daily Weather History Graph

Search for Another Location

Airport:

Trip Planner

Search our weather history database for the weather conditions in past years. The results will help you decide how hot, cold, wet, or windy it might be!

Date:

Astronomy

Nov. 01, 2012 Rise Set
Actual Time 7:31 AM CDT 6:21 PM CDT
Civil Twilight 7:05 AM CDT 6:47 PM CDT
Nautical Twilight 6:36 AM CDT 7:16 PM CDT
Astronomical Twilight 6:07 AM CDT 7:45 PM CDT
Moon 8:26 PM CDT (11/1) 9:57 AM CDT (11/1)
Length of Visible Light 11h 41m
Length of Day
10h 50m
Waning Gibbous, 93% of the Moon is Illuminated
Nov 1
Waning Gibbous
Nov 6
Last Quarter
Nov 13
New
Nov 20
First Quarter
Nov 28
Full

Hourly Weather History & Observations

Time (CDT) Temp. Dew Point Humidity Pressure Visibility Wind Dir Wind Speed Gust Speed Precip Events Conditions
12:15 AM 51.8 °F 49.5 °F 92% 30.02 in 7.0 mi Calm Calm - N/A   Clear
12:35 AM 52.0 °F 49.6 °F 92% 30.02 in 10.0 mi Calm Calm - N/A   Clear
12:55 AM 52.0 °F 49.1 °F 90% 30.02 in 10.0 mi Calm Calm - N/A   Clear
1:15 AM 51.4 °F 48.6 °F 90% 30.02 in 10.0 mi Calm Calm - N/A   Clear
1:35 AM 51.8 °F 49.3 °F 91% 30.02 in 10.0 mi Calm Calm - N/A   Clear
1:55 AM 51.1 °F 49.1 °F 93% 30.02 in 7.0 mi Calm Calm - N/A   Clear
2:15 AM 49.5 °F 47.3 °F 92% 30.02 in 7.0 mi Calm Calm - N/A   Clear
2:35 AM 50.2 °F 48.2 °F 93% 30.02 in 7.0 mi Calm Calm - N/A   Clear
2:55 AM 49.5 °F 47.3 °F 92% 30.02 in 7.0 mi Calm Calm - N/A   Clear
3:15 AM 49.3 °F 47.1 °F 92% 30.02 in 10.0 mi Calm Calm - N/A   Clear
3:35 AM 49.5 °F 47.3 °F 92% 30.03 in 7.0 mi Calm Calm - N/A   Clear
3:55 AM 49.3 °F 47.1 °F 92% 30.03 in 1.2 mi Calm Calm - N/A   Mist
4:15 AM 49.1 °F 47.3 °F 93% 30.02 in 7.0 mi Calm Calm - N/A   Clear
4:35 AM 48.2 °F 46.2 °F 93% 30.02 in 5.0 mi Calm Calm - N/A   Clear
4:55 AM 48.4 °F 46.4 °F 93% 30.02 in 10.0 mi Calm Calm - N/A   Clear
5:15 AM 48.0 °F 45.9 °F 92% 30.02 in 7.0 mi Calm Calm - N/A   Clear
5:35 AM 47.3 °F 45.5 °F 93% 30.03 in 7.0 mi Calm Calm - N/A   Clear
5:55 AM 49.8 °F 47.8 °F 93% 30.03 in 7.0 mi Calm Calm - N/A   Clear
6:15 AM 49.3 °F 47.1 °F 92% 30.03 in 7.0 mi Calm Calm - N/A   Clear
6:35 AM 49.1 °F 46.9 °F 92% 30.04 in 7.0 mi Calm Calm - N/A   Clear
7:15 AM 50.9 °F 48.9 °F 93% 30.04 in 7.0 mi East 3.5 mph - N/A   Clear
7:35 AM 52.0 °F 50.0 °F 93% 30.05 in 7.0 mi East 3.5 mph - N/A   Clear
8:35 AM 53.4 °F 50.7 °F 91% 30.07 in 7.0 mi Calm Calm - N/A   Clear
8:55 AM 55.8 °F 52.3 °F 88% 30.08 in 7.0 mi Calm Calm - N/A   Clear
9:15 AM 57.9 °F 53.8 °F 86% 30.08 in 10.0 mi Calm Calm - N/A   Clear
10:15 AM 65.1 °F 54.9 °F 69% 30.09 in 10.0 mi Calm Calm - N/A   Clear
10:35 AM 66.6 °F 56.1 °F 69% 30.09 in 10.0 mi Calm Calm - N/A   Clear
10:55 AM 68.4 °F 57.0 °F 67% 30.09 in 10.0 mi SSE 3.5 mph - N/A   Clear
11:15 AM 69.6 °F 57.0 °F 64% 30.08 in 10.0 mi Calm Calm - N/A   Clear
11:35 AM 70.9 °F 57.2 °F 62% 30.08 in 10.0 mi Calm Calm - N/A   Clear
12:15 PM 73.4 °F 56.5 °F 55% 30.06 in 10.0 mi SSW 3.5 mph - N/A   Clear
12:35 PM 74.3 °F 55.8 °F 52% 30.05 in 10.0 mi Calm Calm - N/A   Clear
12:55 PM 75.0 °F 54.5 °F 49% 30.04 in 10.0 mi Calm Calm - N/A   Clear
1:15 PM 76.8 °F 54.0 °F 45% 30.03 in 10.0 mi Calm Calm - N/A   Clear
1:35 PM 77.0 °F 53.8 °F 44% 30.02 in 10.0 mi SSE 3.5 mph - N/A   Clear
1:55 PM 77.2 °F 52.5 °F 42% 30.01 in 10.0 mi Calm Calm - N/A   Clear
2:15 PM 77.2 °F 53.8 °F 44% 30.00 in 10.0 mi Calm Calm - N/A   Clear
2:35 PM 77.7 °F 54.3 °F 44% 29.99 in 10.0 mi SSE 3.5 mph - N/A   Clear
3:35 PM 78.8 °F 54.1 °F 42% 29.98 in 10.0 mi Calm Calm - N/A   Clear
3:55 PM 79.9 °F 53.4 °F 40% 29.98 in 10.0 mi SSW 3.5 mph - N/A   Clear
4:15 PM 79.7 °F 54.1 °F 41% 29.97 in 10.0 mi South 3.5 mph - N/A   Clear
4:35 PM 79.3 °F 53.4 °F 41% 29.97 in 10.0 mi SSW 5.8 mph - N/A   Clear
5:15 PM 78.3 °F 53.6 °F 42% 29.97 in 10.0 mi South 3.5 mph - N/A   Clear
5:35 PM 77.0 °F 54.9 °F 46% 29.97 in 10.0 mi Calm Calm - N/A   Clear
5:55 PM 74.8 °F 55.9 °F 52% 29.97 in 10.0 mi Calm Calm - N/A   Clear
6:15 PM 70.9 °F 57.6 °F 63% 29.96 in 10.0 mi Calm Calm - N/A   Clear
6:35 PM 68.7 °F 57.2 °F 67% 29.96 in 10.0 mi Calm Calm - N/A   Clear
6:55 PM 66.4 °F 57.7 °F 74% 29.96 in 10.0 mi Calm Calm - N/A   Clear
7:15 PM 65.3 °F 58.1 °F 77% 29.97 in 10.0 mi Calm Calm - N/A   Clear
7:35 PM 63.7 °F 58.1 °F 82% 29.97 in 10.0 mi Calm Calm - N/A   Clear
7:55 PM 62.6 °F 57.6 °F 84% 29.97 in 10.0 mi Calm Calm - N/A   Clear
8:15 PM 61.3 °F 56.7 °F 85% 29.97 in 10.0 mi ESE 3.5 mph - N/A   Clear
8:35 PM 61.7 °F 56.7 °F 84% 29.97 in 10.0 mi Calm Calm - N/A   Clear
8:55 PM 61.5 °F 56.7 °F 84% 29.97 in 10.0 mi Calm Calm - N/A   Clear
9:15 PM 61.2 °F 56.3 °F 84% 29.98 in 10.0 mi Calm Calm - N/A   Clear
9:35 PM 60.3 °F 55.9 °F 86% 29.98 in 10.0 mi Calm Calm - N/A   Clear
9:55 PM 58.6 °F 55.4 °F 89% 29.98 in 10.0 mi SE 3.5 mph - N/A   Clear
10:15 PM 60.3 °F 56.3 °F 87% 29.98 in 10.0 mi Calm Calm - N/A   Clear
10:35 PM 57.6 °F 54.3 °F 89% 29.98 in 10.0 mi SSE 3.5 mph - N/A   Clear
10:55 PM 61.5 °F 54.9 °F 79% 29.98 in 10.0 mi Calm Calm - N/A   Clear
11:15 PM 60.3 °F 55.0 °F 83% 29.97 in 10.0 mi Calm Calm - N/A   Clear
11:35 PM 59.7 °F 54.5 °F 83% 29.97 in 10.0 mi Calm Calm - N/A   Clear
11:55 PM 58.5 °F 54.0 °F 85% 29.97 in 10.0 mi SE 3.5 mph - N/A   Clear